Regional Weather Roundup
Issued by NWS Kansas City/Pleasant Hill, MO

Home | Current Version | Previous Version | Text Only | Print | Product List | Glossary On
Versions: 1 2 3 4 5 6 7 8 9 10 11 12 13 14 15 16 17 18 19 20 21 22 23 24 25 26 27 28 29 30 31 32 33 34 35 36 37 38 39 40 41 42 43 44 45 46 47 48 49 50
000
ASUS43 KEAX 191504
RWREAX

WEATHER ROUNDUP FOR EASTERN KANSAS AND NORTHWEST MISSOURI
NATIONAL WEATHER SERVICE KANSAS CITY/PLEASANT HILL MO
900 AM CST FRI DEC 19 2014

KSZ040-057-103>105-MOZ028-029-037-043-191600-
...KANSAS CITY METROPOLITAN AREA...

CITY           SKY/WX    TMP DP  RH WIND       PRES   REMARKS
K.C. INTL      DRIZZLE   30  29  96 E6        30.26S FOG     WCI  24
K.C. DOWNTOWN  CLOUDY    32  29  88 NE3       30.27S
LEES SUMMIT    CLOUDY    31  29  92 E5        30.26S WCI  26
OLATHE - IXD   CLOUDY    31  29  92 SE3       30.26S FOG
OLATHE - OJC   CLOUDY    31  29  92 E6        30.25R FOG     WCI  25
LAWRENCE       CLOUDY    31  28  89 E3        30.27S FOG

$$

MOZ001>008-011>017-020>025-030>033-038>040-044>046-053-054-191600-
...NORTHERN AND CENTRAL MISSOURI...

CITY           SKY/WX    TMP DP  RH WIND       PRES   REMARKS
ST. JOSEPH     CLOUDY    30  27  88 CALM      30.29R
MOSBY          CLOUDY    32  32 100 CALM      30.28S FOG
WARRENSBURG    CLOUDY    32  32 100 CALM      30.28R FOG
WHITEMAN AFB   FOG       33  32  97 E5        30.27R VSB 1/2 WCI  28
CLINTON        CLOUDY    36  36 100 E5        30.28S FOG     WCI  32
SEDALIA        CLOUDY    34  32  92 E5        30.28R FOG     WCI  30
WARSAW         NOT AVBL
MARSHALL       CLOUDY    34  34 100 E3        30.29S FOG
CHILLICOTHE      N/A     31  28  89 SE3       30.30R
MOBERLY        CLOUDY    32  27  80 E6        30.30  HAZE    WCI  26
KIRKSVILLE     CLOUDY    29  27  92 E6        30.29R FOG     WCI  23

$$

MOZ041-047>049-056>058-063>065-088>090-097-191600-
...EASTERN AND SOUTHERN MISSOURI...

CITY           SKY/WX    TMP DP  RH WIND       PRES   REMARKS
ST. LOUIS INTL PTSUNNY   33  26  75 E6        30.32R HAZE    WCI  28
SPIRIT OF STL  CLOUDY    33  28  81 E8        30.30S WCI  26
COLUMBIA       CLOUDY    33  30  88 E3        30.29R FOG
JEFFERSON CITY CLOUDY    34  31  88 E3        30.31R FOG
MEXICO         CLOUDY   N/A N/A N/A NE3       30.30R HAZE
ROLLA          CLOUDY    33  31  92 E5        30.26R WCI  29
LEBANON        FOG       34  34 100 SE5       30.25  VSB 1/4 WCI  30
OSAGE BEACH    CLOUDY    34  32  93 CALM      30.27R
SPRINGFIELD    CLOUDY    38  35  89 S3        30.23R
BRANSON        FOG       37  36  93 CALM      30.24S VSB 1/8
NEVADA         CLOUDY    34  34 100 CALM      30.28R FOG
JOPLIN         FOG       36  36 100 N6        30.25S VSB 1/2 WCI  31
WEST PLAINS    FOG       34  33  96 SE3       30.27R VSB 1/4

$$

IAZ060-094-KSZ022-034>040-054-083-096-NEZ052-066-093-191600-
...KANSAS...SOUTHEAST NEBRASKA AND IOWA...

CITY           SKY/WX    TMP DP  RH WIND       PRES   REMARKS
TOPEKA         CLOUDY    30  29  96 CALM      30.27S FOG
MANHATTAN      CLOUDY    30  30 100 S3        30.25R FOG
EMPORIA        CLOUDY    27  26  96 SE5       30.27R WCI  22
CHANUTE        CLOUDY    34  32  92 SE3       30.27S FOG
WICHITA        CLOUDY    32  29  88 S3        30.25S FOG
OMAHA          CLOUDY    31  28  89 S9        30.24S FOG     WCI  23
LINCOLN        CLOUDY    32  28  85 S7        30.22R FOG     WCI  26
FALLS CITY     CLOUDY    29  26  89 SE6       30.26R WCI  23
LAMONI         CLOUDY    28  27  96 SE6       30.27R FOG     WCI  22
DES MOINES     CLOUDY    29  25  85 SE5       30.27R FOG     WCI  24

$$



USA.gov is the U.S. government's official web portal to all federal, state and local government web resources and services.